Regional Weather Roundup
Issued by NWS

Home | Current Version | Previous Version | Text Only | Print | Product List | Glossary Off
Versions: 1 2 3 4 5 6 7 8 9 10 11 12 13 14 15 16 17 18 19 20 21 22 23 24 25 26 27

000
ASUS45 KCYS 011410
RWRWY

WYOMING REGIONAL WEATHER ROUNDUP
NATIONAL WEATHER SERVICE CHEYENNE WY
800 AM MDT SUN MAY 01 2016

NOTE:  "FAIR" INDICATES FEW OR NO CLOUDS BELOW 12,000 FEET
WITH NO SIGNIFICANT WEATHER AND/OR OBSTRUCTIONS TO VISIBILITY.

WYZ001-011500-
YELLOWSTONE NATIONAL PARK

CITY           SKY/WX    TMP DP  RH WIND       PRES   REMARKS
LK YELLOWSTONE   N/A     33  19  56 VRB3      30.31S
W YELLOWSTONE  NOT AVBL

$$
WYZ002>013-054>058-071-098>099-011500-
NORTHERN WYOMING

CITY           SKY/WX    TMP DP  RH WIND       PRES   REMARKS
JACKSON        MOSUNNY   37  23  56 N12       30.26R WCI  30
CODY           FAIR      43  34  70 NE3       30.33S
GREYBULL       FAIR      40  32  73 SE5       30.32R
WORLAND        FAIR      38  35  89 S5        30.32R WCI  34
SHERIDAN       FAIR      44  36  73 CALM      30.35R
BUFFALO          N/A    N/A N/A N/A MISG      30.35R
GILLETTE       FAIR      41  32  70 CALM      30.33R
HULETT         FAIR      39  30  70 CALM      30.35S
NEWCASTLE      FAIR      36  28  75 N6        30.33S WCI  31

$$
WYZ014>020-022>026-101>103-011500-
CENTRAL WYOMING

CITY           SKY/WX    TMP DP  RH WIND       PRES   REMARKS
BIG PINEY      FAIR      31  25  78 CALM      30.27R
PINEDALE       FAIR      32  28  86 NW6       30.27R WCI  26
DUBOIS         NOT AVBL
LANDER         CLOUDY    36  30  79 W3        30.32R
RIVERTON       CLOUDY    36  31  82 E3        30.33R
CASPER         CLOUDY    35  29  78 N7        30.33R WCI  29
DOUGLAS        PTSUNNY   37  30  75 NW6       30.34R WCI  32

$$
WYZ021-027>030-104>119-011500-
SOUTHERN WYOMING

CITY           SKY/WX    TMP DP  RH WIND       PRES   REMARKS
EVANSTON       FAIR      32  23  69 E29G38    30.17R WCI  18
KEMMERER       CLOUDY    32  28  86 E20G29    30.23R WCI  20
FORT BRIDGER   PTSUNNY   32  30  93 E17G29    30.26R WCI  21
ROCK SPRINGS   FAIR      33  23  66 E30G37    30.24R WCI  19
DIXON          FAIR      37  22  54 NE20G25   30.22R WCI  27
RAWLINS        CLOUDY    30  23  75 NE13      30.29R WCI  20
SARATOGA       PTSUNNY   34  21  60 NE16      30.27R WCI  23
LARAMIE        CLOUDY    27  21  78 NE3       30.28R
CHEYENNE       CLOUDY    31  27  85 N10       30.29R WCI  22
TORRINGTON     CLOUDY    41  29  62 N13       30.30R
PINE BLUFFS    CLOUDY    32  32 100 N9        30.30R WCI  24

$$




USA.gov is the U.S. government's official web portal to all federal, state and local government web resources and services.